Location: Rathdrum
(47.8130°N, 116.8960°W)
Time: 20:44:54
(UTC-07:00)

Amateur Radio Satellites - All Passes

Search period start: 31 July 2014 20:14
Search period end: 01 August 2014 20:14
Location: Rathdrum, 47.8130°N, 116.8960°W

Satellite Date Start Highest point End Downlink Frequencies (MHz)
Time Altitude Azimuth
STRAND 1 31 Jul 20:26:00 20:30:55 49° 292° (WNW) 20:35:48 ?
MaSat-1 31 Jul 20:35:25 20:39:29 45° 111° (ESE) 20:44:09 437.345 MHz
Oscar 11 31 Jul 20:38:55 20:42:21 24° 64° (ENE) 20:45:47 145.825 FM, Beacon 2401.500 USB
SO-50 31 Jul 20:52:18 20:56:54 50° 238° (WSW) 21:01:32 436.795 FM
UOSAT-12 31 Jul 20:55:50 20:59:57 28° 37° (NE) 21:04:02 437.025 FM, 437.400 FM
FUNcube-1 31 Jul 21:09:31 21:12:31 19° 63° (ENE) 21:15:29 145.950 - 145.970 MHz USB
HO-68 31 Jul 21:29:12 21:36:11 54° 259° (W) 21:43:12 435.675 MHz FM
UKube-1 31 Jul 21:32:12 21:36:29 55° 259° (W) 21:40:49 145.840 MHz, 145.915 MHz
RS-15 31 Jul 22:05:05 22:16:06 81° 237° (WSW) 22:27:31 29.354 - 29.394 USB, Beacon 29.352 USB
ISS 31 Jul 22:12:50 22:15:11 18° 138° (SE) 22:17:33 145.800 FM
MaSat-1 31 Jul 22:13:05 22:17:02 29° 314° (NW) 22:21:25 437.345 MHz
Oscar 11 31 Jul 22:14:17 22:18:20 40° 262° (W) 22:22:25 145.825 FM, Beacon 2401.500 USB
Oscar 10/S400 31 Jul 22:23:00 22:45:13 48° 160° (SSE) 06:10:58 145.825 - 145.975 CW/USB, Beacon 145.810 USB
UOSAT-12 31 Jul 22:35:46 22:40:26 60° 237° (WSW) 22:45:03 437.025 FM, 437.400 FM
FUNcube-1 31 Jul 22:44:28 22:48:37 49° 260° (W) 22:52:43 145.950 - 145.970 MHz USB
Sapphire 31 Jul 23:38:18 23:42:52 29° 110° (ESE) 23:47:27 437.095 MHz 1200 baud AX-25 AFSK
ISS 31 Jul 23:48:11 23:51:31 88° 156° (SSE) 23:54:54 145.800 FM
PCSat 01 Aug 00:10:28 00:15:43 54° 117° (ESE) 00:21:01 145.825 MHz
RS-15 01 Aug 00:18:53 00:26:46 23° 259° (W) 00:34:51 29.354 - 29.394 USB, Beacon 29.352 USB
AO-40 01 Aug 00:25:23 05:26:25 31° 162° (SSE) 07:13:05 Beacon 2401.320
Sapphire 01 Aug 01:20:44 01:26:01 53° 310° (NW) 01:31:21 437.095 MHz 1200 baud AX-25 AFSK
ISS 01 Aug 01:25:15 01:28:28 42° 355° (N) 01:31:42 145.800 FM
JAS-1B 01 Aug 01:26:48 01:30:47 13° 75° (ENE) 01:34:33 435.800 - 435.900 CW/SSB
Oscar 19 01 Aug 01:34:56 01:39:10 25° 93° (E) 01:43:23 437.125 CW, 437.150 USB
PCSat 01 Aug 01:54:34 01:59:25 32° 318° (NW) 02:04:18 145.825 MHz
OPAL 01 Aug 02:02:09 02:04:20 13° 51° (NE) 02:06:31 ?
Oscar 16 01 Aug 02:03:28 02:08:26 45° 99° (E) 02:13:22 437.025 USB, Beacon 2401.1428
ITAMSAT 1 01 Aug 02:31:28 02:36:14 36° 97° (E) 02:40:58 435.822 SSB
Uribyol 2 01 Aug 02:49:52 02:54:57 55° 101° (E) 03:00:00 436.500 FM
AO-27 01 Aug 02:51:25 02:56:31 54° 101° (E) 03:01:35 436.795 MHz FM
ISS 01 Aug 03:02:13 03:05:33 57° 16° (NNE) 03:08:52 145.800 FM
AO-Echo 01 Aug 03:03:32 03:08:37 73° 103° (ESE) 03:13:30 ?
TMSAT-1 01 Aug 03:06:43 03:11:05 25° 93° (E) 03:15:25 436.925 FM
Sapphire 01 Aug 03:07:23 03:10:42 16° 333° (NNW) 03:14:03 437.095 MHz 1200 baud AX-25 AFSK
Oscar 19 01 Aug 03:13:47 03:18:47 50° 291° (WNW) 03:23:46 437.125 CW, 437.150 USB
JAS-1B 01 Aug 03:14:20 03:23:38 60° 99° (E) 03:31:31 435.800 - 435.900 CW/SSB
MaSat-1 01 Aug 03:14:41 03:16:07 11° 27° (NNE) 03:17:32 437.345 MHz
Gurwin Techsat 1B 01 Aug 03:32:49 03:38:04 56° 100° (E) 03:43:15 435.225 FM
OPAL 01 Aug 03:37:28 03:42:23 74° 70° (ENE) 03:47:22 ?
PCSat 01 Aug 03:42:30 03:44:37 12° 342° (NNW) 03:46:45 145.825 MHz
Oscar 16 01 Aug 03:43:13 03:47:36 29° 297° (WNW) 03:52:00 437.025 USB, Beacon 2401.1428
ITAMSAT 1 01 Aug 04:11:03 04:15:43 35° 295° (WNW) 04:20:21 435.822 SSB
AO-7 01 Aug 04:24:31 04:31:54 34° 95° (E) 04:39:11 29.400 - 29.500 MHz
Uribyol 2 01 Aug 04:30:01 04:34:06 24° 299° (WNW) 04:38:11 436.500 FM
AO-27 01 Aug 04:31:35 04:35:43 25° 299° (WNW) 04:39:50 436.795 MHz FM
ISS 01 Aug 04:39:03 04:42:12 38° 214° (SW) 04:45:21 145.800 FM
AO-Echo 01 Aug 04:43:26 04:46:48 18° 302° (WNW) 04:50:07 ?
TMSAT-1 01 Aug 04:46:09 04:51:16 50° 291° (WNW) 04:56:21 436.925 FM
MaSat-1 01 Aug 04:50:08 04:55:01 35° 49° (NE) 04:59:43 437.345 MHz
Uosat F 01 Aug 05:03:27 05:08:26 62° 102° (ESE) 05:13:23 435.120 FM
JAS-1B 01 Aug 05:05:08 05:13:44 41° 302° (WNW) 05:21:17 435.800 - 435.900 CW/SSB
KITSAT 1 01 Aug 05:07:33 05:14:47 38° 110° (ESE) 05:22:01 435.175 FM
Gurwin Techsat 1B 01 Aug 05:13:27 05:17:41 25° 299° (WNW) 05:21:55 435.225 FM
OPAL 01 Aug 05:18:50 05:21:50 16° 268° (W) 05:24:51 ?
PCSat 01 Aug 05:30:00 05:30:42 10° 9° (N) 05:31:25 145.825 MHz
Saudisat 1A 01 Aug 05:44:25 05:45:34 11° 108° (ESE) 05:46:43 436.775 MHz
STRAND 1 01 Aug 06:06:20 06:11:17 51° 69° (ENE) 06:16:16 ?
AO-7 01 Aug 06:16:59 06:25:12 65° 296° (WNW) 06:33:21 29.400 - 29.500 MHz
MaSat-1 01 Aug 06:27:27 06:32:28 44° 249° (WSW) 06:37:12 437.345 MHz
JAS-2 01 Aug 06:32:22 06:37:46 36° 94° (E) 06:42:41 435.800 - 435.900 CW/SSB, 435.910 FM
Sapphire 01 Aug 06:39:17 06:42:33 16° 26° (NNE) 06:45:49 437.095 MHz 1200 baud AX-25 AFSK
Uosat F 01 Aug 06:43:05 06:46:48 21° 301° (WNW) 06:50:31 435.120 FM
Hamsat 01 Aug 06:45:54 06:50:12 63° 101° (E) 06:54:30 145.90 MHz
JAS-1B 01 Aug 06:57:27 07:01:33 14° 327° (NNW) 07:05:31 435.800 - 435.900 CW/SSB
KITSAT 1 01 Aug 07:01:47 07:09:49 64° 312° (NW) 07:17:54 435.175 FM
PCSat 01 Aug 07:12:02 07:16:18 23° 35° (NE) 07:20:32 145.825 MHz
Saudisat 1A 01 Aug 07:19:58 07:24:24 80° 126° (SE) 07:28:50 436.775 MHz
STRAND 1 01 Aug 07:46:37 07:50:45 24° 267° (W) 07:54:55 ?
SO-67 01 Aug 07:56:22 07:59:50 62° 101° (E) 08:03:16 435.3500 MHz FM
AO-7 01 Aug 08:11:03 08:16:30 20° 318° (NW) 08:21:56 29.400 - 29.500 MHz
JAS-2 01 Aug 08:17:30 08:22:56 37° 297° (WNW) 08:27:51 435.800 - 435.900 CW/SSB, 435.910 FM
Sapphire 01 Aug 08:21:58 08:27:17 51° 49° (NE) 08:32:34 437.095 MHz 1200 baud AX-25 AFSK
Hamsat 01 Aug 08:23:01 08:25:43 17° 299° (WNW) 08:28:26 145.90 MHz
HO-68 01 Aug 08:53:27 08:59:13 26° 92° (E) 09:04:57 435.675 MHz FM
PCSat 01 Aug 08:55:00 09:00:28 90° 57° (ENE) 09:05:54 145.825 MHz
KITSAT 1 01 Aug 09:00:19 09:06:56 26° 338° (NNW) 09:13:34 435.175 FM
Saudisat 1A 01 Aug 09:01:04 09:04:30 22° 327° (NNW) 09:07:58 436.775 MHz
UKube-1 01 Aug 09:17:49 09:20:59 19° 92° (E) 09:24:08 145.840 MHz, 145.915 MHz
SO-67 01 Aug 09:31:15 09:32:26 11° 298° (WNW) 09:33:36 435.3500 MHz FM
Oscar 11 01 Aug 09:58:29 10:02:15 28° 95° (E) 10:06:00 145.825 FM, Beacon 2401.500 USB
Sapphire 01 Aug 10:05:49 10:10:29 30° 249° (WSW) 10:15:08 437.095 MHz 1200 baud AX-25 AFSK
FUNcube-1 01 Aug 10:30:26 10:33:48 23° 94° (E) 10:37:11 145.950 - 145.970 MHz USB
PCSat 01 Aug 10:40:01 10:43:07 16° 256° (WSW) 10:46:13 145.825 MHz
HO-68 01 Aug 10:40:26 10:47:34 72° 291° (WNW) 10:54:39 435.675 MHz FM
UKube-1 01 Aug 10:53:16 10:57:28 48° 290° (WNW) 11:01:38 145.840 MHz, 145.915 MHz
KITSAT 1 01 Aug 10:59:29 11:05:28 22° 8° (N) 11:11:26 435.175 FM
SO-50 01 Aug 11:11:14 11:14:46 23° 114° (ESE) 11:18:21 436.795 FM
Oscar 11 01 Aug 11:34:34 11:38:28 33° 293° (WNW) 11:42:21 145.825 FM, Beacon 2401.500 USB
Oscar 16 01 Aug 11:47:27 11:50:22 16° 55° (NE) 11:53:17 437.025 USB, Beacon 2401.1428
FUNcube-1 01 Aug 12:06:28 12:10:20 37° 291° (WNW) 12:14:13 145.950 - 145.970 MHz USB
JAS-1B 01 Aug 12:13:27 12:20:20 23° 45° (NE) 12:27:20 435.800 - 435.900 CW/SSB
ITAMSAT 1 01 Aug 12:16:47 12:19:19 14° 54° (NE) 12:21:50 435.822 SSB
Saudisat 1A 01 Aug 12:26:07 12:27:26 11° 16° (NNE) 12:28:44 436.775 MHz
HO-68 01 Aug 12:29:33 12:34:07 19° 313° (NW) 12:38:41 435.675 MHz FM
RS-15 01 Aug 12:32:41 12:43:01 47° 112° (ESE) 12:53:10 29.354 - 29.394 USB, Beacon 29.352 USB
Uribyol 2 01 Aug 12:33:54 12:37:30 19° 58° (ENE) 12:41:07 436.500 FM
AO-27 01 Aug 12:35:40 12:39:18 20° 58° (ENE) 12:42:56 436.795 MHz FM
AO-Echo 01 Aug 12:42:23 12:46:24 22° 60° (ENE) 12:50:23 ?
SO-50 01 Aug 12:50:36 12:55:00 54° 314° (NW) 12:59:32 436.795 FM
UOSAT-12 01 Aug 12:51:21 12:54:34 19° 112° (ESE) 12:57:49 437.025 FM, 437.400 FM
Oscar 19 01 Aug 12:55:02 12:59:57 49° 69° (ENE) 13:04:54 437.125 CW, 437.150 USB
KITSAT 1 01 Aug 12:55:54 13:03:26 39° 36° (NE) 13:10:54 435.175 FM
Gurwin Techsat 1B 01 Aug 13:19:32 13:23:20 20° 58° (ENE) 13:27:09 435.225 FM
Oscar 16 01 Aug 13:23:53 13:29:00 89° 74° (ENE) 13:34:11 437.025 USB, Beacon 2401.1428
AO-7 01 Aug 13:38:34 13:43:49 19° 40° (NE) 13:49:05 29.400 - 29.500 MHz
ITAMSAT 1 01 Aug 13:52:46 13:57:58 77° 73° (ENE) 14:03:12 435.822 SSB
JAS-1B 01 Aug 13:59:50 14:09:03 68° 67° (ENE) 14:18:53 435.800 - 435.900 CW/SSB
Saudisat 1A 01 Aug 14:04:28 14:08:25 30° 39° (NE) 14:12:20 436.775 MHz
Uribyol 2 01 Aug 14:11:16 14:16:27 73° 257° (WSW) 14:21:40 436.500 FM
AO-27 01 Aug 14:13:04 14:18:17 73° 257° (WSW) 14:23:31 436.795 MHz FM
AO-Echo 01 Aug 14:19:26 14:24:43 65° 258° (WSW) 14:30:00 ?
UOSAT-12 01 Aug 14:29:36 14:34:13 69° 311° (NW) 14:38:57 437.025 FM, 437.400 FM
TMSAT-1 01 Aug 14:30:39 14:35:48 54° 70° (ENE) 14:40:58 436.925 FM
SO-50 01 Aug 14:33:50 14:36:36 16° 336° (NNW) 14:39:25 436.795 FM
Oscar 19 01 Aug 14:35:25 14:39:34 25° 267° (W) 14:43:44 437.125 CW, 437.150 USB
Uosat F 01 Aug 14:43:20 14:46:53 20° 58° (ENE) 14:50:26 435.120 FM
RS-15 01 Aug 14:44:08 14:55:04 63° 317° (NW) 15:05:57 29.354 - 29.394 USB, Beacon 29.352 USB
KITSAT 1 01 Aug 14:51:24 14:59:27 71° 240° (WSW) 15:07:26 435.175 FM
Gurwin Techsat 1B 01 Aug 14:57:29 15:02:47 71° 257° (WSW) 15:08:07 435.225 FM
Oscar 16 01 Aug 15:06:41 15:09:06 13° 273° (W) 15:11:31 437.025 USB, Beacon 2401.1428
AO-7 01 Aug 15:26:51 15:35:02 61° 63° (ENE) 15:43:13 29.400 - 29.500 MHz
ITAMSAT 1 01 Aug 15:34:52 15:38:04 16° 271° (W) 15:41:17 435.822 SSB
Saudisat 1A 01 Aug 15:43:56 15:48:10 46° 239° (WSW) 15:52:22 436.775 MHz
OPAL 01 Aug 15:45:22 15:48:01 14° 90° (E) 15:50:39 ?
JAS-1B 01 Aug 15:51:36 16:00:02 38° 269° (W) 16:09:06 435.800 - 435.900 CW/SSB
Uribyol 2 01 Aug 15:56:23 15:56:51 10° 275° (W) 15:57:19 436.500 FM
AO-27 01 Aug 15:58:00 15:58:43 10° 275° (W) 15:59:26 436.795 MHz FM
TMSAT-1 01 Aug 16:11:50 16:16:03 24° 268° (W) 16:20:17 436.925 FM
UOSAT-12 01 Aug 16:11:58 16:15:14 18° 333° (NNW) 16:18:33 437.025 FM, 437.400 FM
Uosat F 01 Aug 16:20:09 16:25:10 69° 257° (WSW) 16:30:14 435.120 FM
Gurwin Techsat 1B 01 Aug 16:43:23 16:43:44 10° 276° (W) 16:44:05 435.225 FM
JAS-2 01 Aug 16:46:52 16:53:17 32° 61° (ENE) 16:59:13 435.800 - 435.900 CW/SSB, 435.910 FM
KITSAT 1 01 Aug 16:48:56 16:53:24 16° 261° (W) 16:57:52 435.175 FM
RS-15 01 Aug 17:00:19 17:09:59 34° 349° (NNW) 17:19:44 29.354 - 29.394 USB, Beacon 29.352 USB
AO-7 01 Aug 17:20:42 17:28:13 36° 264° (W) 17:35:48 29.400 - 29.500 MHz
OPAL 01 Aug 17:22:26 17:27:33 86° 288° (WNW) 17:32:42 ?
Hamsat 01 Aug 17:42:29 17:46:39 68° 74° (ENE) 17:50:52 145.90 MHz
UOSAT-12 01 Aug 17:56:37 17:57:18 10° 357° (N) 17:58:00 437.025 FM, 437.400 FM
SO-50 01 Aug 17:58:37 18:01:42 17° 26° (NNE) 18:04:49 436.795 FM
STRAND 1 01 Aug 18:15:22 18:17:34 13° 87° (E) 18:19:45 ?
JAS-2 01 Aug 18:30:18 18:37:56 66° 258° (WSW) 18:44:56 435.800 - 435.900 CW/SSB, 435.910 FM
SO-67 01 Aug 18:32:51 18:36:02 34° 71° (ENE) 18:39:13 435.3500 MHz FM
OPAL 01 Aug 19:02:48 19:05:44 16° 307° (NW) 19:08:41 ?
RS-15 01 Aug 19:15:57 19:26:03 39° 23° (NNE) 19:36:19 29.354 - 29.394 USB, Beacon 29.352 USB
Hamsat 01 Aug 19:21:09 19:23:07 13° 272° (W) 19:25:05 145.90 MHz
HO-68 01 Aug 19:26:00 19:32:00 30° 56° (NE) 19:38:00 435.675 MHz FM
UOSAT-12 01 Aug 19:36:45 19:39:30 15° 22° (NNE) 19:42:15 437.025 FM, 437.400 FM
SO-50 01 Aug 19:38:31 19:43:13 60° 48° (NE) 19:47:58 436.795 FM
STRAND 1 01 Aug 19:52:22 19:57:31 88° 105° (ESE) 20:02:37 ?
SO-67 01 Aug 20:06:53 20:09:14 17° 268° (W) 20:11:36 435.3500 MHz FM
